TimeCST,TemperatureF,Dew PointF,Humidity,Sea Level PressureIn,VisibilityMPH,Wind Direction,Wind SpeedMPH,Gust SpeedMPH,PrecipitationIn,Events,Conditions,WindDirDegrees,DateUTC
12:53 AM,36.0,33.1,89,30.08,5.0,Calm,Calm,-,N/A,,Clear,0,2013-02-14 06:53:00
1:53 AM,35.1,33.1,92,30.09,9.0,Calm,Calm,-,N/A,,Clear,0,2013-02-14 07:53:00
2:53 AM,35.1,33.1,92,30.10,9.0,Calm,Calm,-,N/A,,Clear,0,2013-02-14 08:53:00
3:53 AM,36.0,33.1,89,30.11,9.0,Calm,Calm,-,N/A,,Clear,0,2013-02-14 09:53:00
4:53 AM,37.0,34.0,89,30.11,7.0,Calm,Calm,-,N/A,,Clear,0,2013-02-14 10:53:00
5:53 AM,35.1,33.1,92,30.10,5.0,Calm,Calm,-,N/A,,Clear,0,2013-02-14 11:53:00
6:06 AM,35.6,33.8,93,30.11,6.0,Calm,Calm,-,N/A,,Scattered Clouds,0,2013-02-14 12:06:00
6:14 AM,35.6,33.8,93,30.11,3.0,Calm,Calm,-,N/A,,Mostly Cloudy,0,2013-02-14 12:14:00
6:17 AM,35.6,33.8,93,30.11,1.5,Calm,Calm,-,N/A,,Mostly Cloudy,0,2013-02-14 12:17:00
6:30 AM,37.4,35.6,93,30.12,0.5,Calm,Calm,-,N/A,Fog,Fog,0,2013-02-14 12:30:00
6:41 AM,35.6,33.8,93,30.12,2.0,Calm,Calm,-,N/A,,Mostly Cloudy,0,2013-02-14 12:41:00
6:49 AM,33.8,33.8,100,30.12,3.0,Calm,Calm,-,N/A,,Scattered Clouds,0,2013-02-14 12:49:00
6:53 AM,34.0,32.0,92,30.13,3.0,Calm,Calm,-,N/A,,Partly Cloudy,0,2013-02-14 12:53:00
7:53 AM,37.9,36.0,93,30.18,4.0,South,3.5,-,N/A,,Clear,170,2013-02-14 13:53:00
8:53 AM,45.0,39.9,82,30.17,7.0,Calm,Calm,-,N/A,,Clear,0,2013-02-14 14:53:00
9:53 AM,48.9,37.0,64,30.17,10.0,Calm,Calm,-,N/A,,Clear,0,2013-02-14 15:53:00
10:53 AM,52.0,39.0,61,30.16,10.0,Variable,3.5,-,N/A,,Clear,0,2013-02-14 16:53:00
11:53 AM,54.0,35.1,49,30.14,10.0,East,3.5,-,N/A,,Clear,80,2013-02-14 17:53:00
12:53 PM,57.0,35.1,44,30.12,10.0,NNE,4.6,-,N/A,,Clear,30,2013-02-14 18:53:00
1:53 PM,57.9,34.0,41,30.09,10.0,Calm,Calm,-,N/A,,Clear,0,2013-02-14 19:53:00
2:53 PM,60.1,33.1,36,30.07,10.0,Variable,5.8,-,N/A,,Clear,0,2013-02-14 20:53:00
3:53 PM,60.1,32.0,35,30.08,10.0,NNE,5.8,-,N/A,,Clear,20,2013-02-14 21:53:00
4:53 PM,59.0,34.0,39,30.08,10.0,Variable,6.9,-,N/A,,Clear,0,2013-02-14 22:53:00
5:53 PM,54.0,37.0,53,30.09,10.0,Calm,Calm,-,N/A,,Clear,0,2013-02-14 23:53:00
6:53 PM,48.0,41.0,77,30.09,10.0,Calm,Calm,-,N/A,,Clear,0,2013-02-15 00:53:00
7:53 PM,45.0,39.9,82,30.11,10.0,Calm,Calm,-,N/A,,Clear,0,2013-02-15 01:53:00
8:53 PM,43.0,39.0,86,30.12,10.0,Calm,Calm,-,N/A,,Clear,0,2013-02-15 02:53:00
9:53 PM,39.9,37.9,93,30.12,10.0,Calm,Calm,-,N/A,,Clear,0,2013-02-15 03:53:00
10:53 PM,39.0,37.0,93,30.12,10.0,Calm,Calm,-,N/A,,Clear,0,2013-02-15 04:53:00
11:53 PM,37.9,36.0,93,30.12,10.0,Calm,Calm,-,N/A,,Clear,0,2013-02-15 05:53:00